timestamp,surface_pressure_avg,surface_temp_avg,battery_voltage,lat,long
2021-04-27 00:09:01+00:00,383.4263,4.5,12.81,47.84626,-54.09684
2021-04-27 00:19:01+00:00,376.6829,4.5,12.65,47.84626,-54.09684
2021-04-27 00:29:01+00:00,375.3463,4.5,12.65,47.84626,-54.09684
2021-04-27 00:39:01+00:00,370.593,4.5,12.65,47.84626,-54.09684
2021-04-27 00:49:01+00:00,361.8147,4.5,12.65,47.84626,-54.09684
2021-04-27 00:59:01+00:00,358.4512,4.5,12.65,47.84626,-54.09684
2021-04-27 01:09:01+00:00,356.9129,4.5,12.65,47.84626,-54.09684
2021-04-27 01:19:00+00:00,348.4763,4.52,12.65,47.84626,-54.09684
2021-04-27 01:29:00+00:00,335.2513,4.59,12.65,47.84626,-54.09684
2021-04-27 01:39:00+00:00,336.4963,4.6,12.65,47.84626,-54.09684
2021-04-27 01:49:00+00:00,331.9063,4.6,12.65,47.84626,-54.09684
2021-04-27 01:59:00+00:00,309.4413,4.61,12.65,47.84626,-54.09684
2021-04-27 02:09:00+00:00,298.5513,4.6,12.65,47.84626,-54.09684
2021-04-27 02:19:01+00:00,298.5179,4.6,12.65,47.84626,-54.09684
2021-04-27 02:29:01+00:00,286.4313,4.6,12.65,47.84626,-54.09684
2021-04-27 02:39:01+00:00,262.1381,4.6,12.65,47.84626,-54.09684
2021-04-27 02:49:01+00:00,259.8297,4.6,12.65,47.84626,-54.09684
2021-04-27 02:59:01+00:00,255.1514,4.6,12.65,47.84626,-54.09684
2021-04-27 03:09:01+00:00,237.8481,4.6,12.65,47.84626,-54.09684
2021-04-27 03:19:01+00:00,223.3747,4.6,12.65,47.84626,-54.09684
2021-04-27 03:29:01+00:00,222.4431,4.6,12.65,47.84626,-54.09684
2021-04-27 03:39:01+00:00,214.4481,4.6,12.65,47.84626,-54.09684
2021-04-27 03:49:01+00:00,202.5414,4.67,12.65,47.84626,-54.09684
2021-04-27 03:59:01+00:00,197.4415,4.7,12.65,47.84626,-54.09684
2021-04-27 04:09:01+00:00,195.6315,4.7,12.65,47.84626,-54.09684
2021-04-27 04:19:01+00:00,188.8615,4.77,12.65,47.84626,-54.09684
2021-04-27 04:29:01+00:00,181.6015,4.8,12.65,47.84626,-54.09684
2021-04-27 04:39:01+00:00,177.5098,4.8,12.65,47.84626,-54.09684
2021-04-27 04:49:01+00:00,175.6165,4.8,12.65,47.84626,-54.09684
2021-04-27 04:59:01+00:00,172.1715,4.8,12.65,47.84626,-54.09684
2021-04-27 05:09:01+00:00,167.7631,4.8,12.65,47.84626,-54.09684
2021-04-27 05:19:01+00:00,168.1165,4.87,12.57,47.84626,-54.09684
2021-04-27 05:29:01+00:00,170.5765,4.89,12.57,47.84626,-54.09684
2021-04-27 05:39:01+00:00,171.6565,4.88,12.57,47.84626,-54.09684
2021-04-27 05:49:01+00:00,173.9565,4.9,12.57,47.84626,-54.09684
2021-04-27 05:59:01+00:00,172.5631,4.9,12.57,47.84626,-54.09684
2021-04-27 06:09:01+00:00,171.4948,4.9,12.57,47.84626,-54.09684
2021-04-27 06:19:01+00:00,175.6698,4.9,12.57,47.84626,-54.09684
2021-04-27 06:29:01+00:00,180.0164,4.9,12.57,47.84626,-54.09684
2021-04-27 06:39:01+00:00,179.0665,4.9,12.57,47.84626,-54.09684
2021-04-27 06:49:01+00:00,182.4615,4.9,12.57,47.84626,-54.09684
2021-04-27 06:59:01+00:00,192.7947,4.89,12.57,47.84626,-54.09684
2021-04-27 07:09:01+00:00,193.0081,4.84,12.57,47.84626,-54.09684
2021-04-27 07:19:00+00:00,192.6398,4.87,12.57,47.84626,-54.09684
2021-04-27 07:29:00+00:00,199.4365,4.8,12.57,47.84626,-54.09684
2021-04-27 07:39:00+00:00,204.0198,4.8,12.57,47.84626,-54.09684
2021-04-27 07:49:00+00:00,207.7615,4.8,12.57,47.84626,-54.09684
2021-04-27 07:59:00+00:00,212.0681,4.8,12.57,47.84626,-54.09684
2021-04-27 08:09:00+00:00,220.6998,4.79,12.57,47.84626,-54.09684
2021-04-27 08:19:00+00:00,225.8798,4.7,12.57,47.84626,-54.09684
2021-04-27 08:29:00+00:00,229.8731,4.7,12.57,47.84626,-54.09684
2021-04-27 08:39:00+00:00,239.0431,4.7,12.57,47.84626,-54.09684
2021-04-27 08:49:00+00:00,249.2448,4.7,12.57,47.84626,-54.09684
2021-04-27 08:59:00+00:00,256.5214,4.7,12.57,47.84626,-54.09684
2021-04-27 09:09:00+00:00,263.3247,4.69,12.57,47.84626,-54.09684
2021-04-27 09:19:01+00:00,273.1913,4.68,12.57,47.84626,-54.09684
2021-04-27 09:29:01+00:00,282.4281,4.6,12.57,47.84626,-54.09684
2021-04-27 09:39:01+00:00,289.9614,4.6,12.57,47.84626,-54.09684
2021-04-27 09:49:01+00:00,298.473,4.6,12.57,47.84626,-54.09684
2021-04-27 09:59:01+00:00,310.2563,4.6,12.57,47.84626,-54.09684
2021-04-27 10:09:01+00:00,320.2663,4.6,12.57,47.84626,-54.09684
2021-04-27 10:19:00+00:00,325.7579,4.59,12.57,47.84626,-54.09684
2021-04-27 10:29:00+00:00,334.7896,4.57,12.57,47.84626,-54.09684
2021-04-27 10:39:00+00:00,343.4763,4.53,12.57,47.84626,-54.09684
2021-04-27 10:49:00+00:00,348.4479,4.5,12.57,47.84626,-54.09684
2021-04-27 10:59:00+00:00,352.8446,4.5,12.57,47.84626,-54.09684
2021-04-27 11:09:00+00:00,356.2646,4.5,12.57,47.84626,-54.09684
2021-04-27 11:19:00+00:00,358.653,4.5,12.57,47.84626,-54.09684
2021-04-27 11:29:00+00:00,363.3513,4.5,12.57,47.84626,-54.09684
2021-04-27 11:39:00+00:00,365.6112,4.42,12.57,47.84626,-54.09684
2021-04-27 11:49:00+00:00,363.4762,4.4,12.57,47.84626,-54.09684
2021-04-27 11:59:00+00:00,363.3146,4.4,12.57,47.84626,-54.09684
2021-04-27 12:09:00+00:00,366.6279,4.2,12.57,47.84626,-54.09684
2021-04-27 12:19:00+00:00,364.5897,4.2,12.73,47.84626,-54.09684
2021-04-27 12:29:00+00:00,359.2112,4.28,12.73,47.84626,-54.09684
2021-04-27 12:39:00+00:00,357.9346,4.3,12.73,47.84626,-54.09684
2021-04-27 12:49:00+00:00,355.4546,4.3,12.73,47.84626,-54.09684
2021-04-27 12:59:00+00:00,347.7013,4.3,12.73,47.84626,-54.09684
2021-04-27 13:09:00+00:00,341.8196,4.35,12.73,47.84626,-54.09684
2021-04-27 13:19:01+00:00,340.6863,4.36,12.97,47.84626,-54.09684
2021-04-27 13:29:01+00:00,333.9064,4.32,12.97,47.84626,-54.09684
2021-04-27 13:39:01+00:00,323.4547,4.36,12.97,47.84626,-54.09684
2021-04-27 13:49:01+00:00,318.473,4.4,12.97,47.84626,-54.09684
2021-04-27 13:59:01+00:00,313.8596,4.4,12.97,47.84626,-54.09684
2021-04-27 14:09:01+00:00,303.668,4.4,12.97,47.84626,-54.09684
2021-04-27 14:19:01+00:00,292.2313,4.4,13.05,47.84626,-54.09684
2021-04-27 14:29:01+00:00,282.8098,4.4,13.05,47.84626,-54.09684
2021-04-27 14:39:01+00:00,274.3964,4.4,13.05,47.84626,-54.09684
2021-04-27 14:49:01+00:00,263.95799999999997,4.4,13.05,47.84626,-54.09684
2021-04-27 14:59:01+00:00,253.3497,4.4,13.05,47.84626,-54.09684
2021-04-27 15:09:01+00:00,241.1613,4.4,13.05,47.84626,-54.09684
2021-04-27 15:19:01+00:00,227.6948,4.45,13.21,47.84626,-54.09684
2021-04-27 15:29:01+00:00,218.7081,4.47,13.21,47.84626,-54.09684
2021-04-27 15:39:01+00:00,212.6064,4.45,13.21,47.84626,-54.09684
2021-04-27 15:49:01+00:00,198.8348,4.45,13.21,47.84626,-54.09684
2021-04-27 15:59:01+00:00,182.7698,4.48,13.21,47.84626,-54.09684
2021-04-27 16:09:01+00:00,176.9448,4.5,13.21,47.84626,-54.09684
2021-04-27 16:19:01+00:00,172.2431,4.5,13.37,47.84626,-54.09684
2021-04-27 16:29:01+00:00,164.3015,4.55,13.37,47.84626,-54.09684
2021-04-27 16:39:01+00:00,159.4849,4.6,13.37,47.84626,-54.09684
2021-04-27 16:49:01+00:00,157.1065,4.6,13.37,47.84626,-54.09684
2021-04-27 16:59:01+00:00,153.3815,4.6,13.37,47.84626,-54.09684
2021-04-27 17:09:01+00:00,150.2248,4.6,13.37,47.84626,-54.09684
2021-04-27 17:19:01+00:00,149.7815,4.6,13.68,47.84626,-54.09684
2021-04-27 17:29:01+00:00,149.5398,4.6,13.68,47.84626,-54.09684
2021-04-27 17:39:01+00:00,145.3648,4.6,13.68,47.84626,-54.09684
2021-04-27 17:49:01+00:00,142.8015,4.62,13.68,47.84626,-54.09684
2021-04-27 17:59:01+00:00,148.8882,4.64,13.68,47.84626,-54.09684
2021-04-27 18:09:01+00:00,152.3082,4.65,13.68,47.84626,-54.09684
2021-04-27 18:19:01+00:00,152.2665,4.66,13.76,47.84626,-54.09684
2021-04-27 18:29:01+00:00,156.6932,4.68,13.76,47.84626,-54.09684
2021-04-27 18:39:01+00:00,161.6415,4.69,13.76,47.84626,-54.09684
2021-04-27 18:49:01+00:00,165.6364,4.7,13.76,47.84626,-54.09684
2021-04-27 18:59:01+00:00,171.0631,4.7,13.76,47.84626,-54.09684
2021-04-27 19:09:01+00:00,175.8648,4.7,13.76,47.84626,-54.09684
2021-04-27 19:19:00+00:00,180.6564,4.7,13.76,47.84626,-54.09684
2021-04-27 19:29:00+00:00,186.5298,4.7,13.76,47.84626,-54.09684
2021-04-27 19:39:00+00:00,191.2348,4.7,13.76,47.84626,-54.09684
2021-04-27 19:49:00+00:00,196.3014,4.7,13.76,47.84626,-54.09684
2021-04-27 19:59:00+00:00,203.2664,4.65,13.76,47.84626,-54.09684
2021-04-27 20:09:00+00:00,209.9514,4.6,13.76,47.84626,-54.09684
2021-04-27 20:19:01+00:00,215.1082,4.6,13.84,47.84626,-54.09684
2021-04-27 20:29:01+00:00,222.8597,4.6,13.84,47.84626,-54.09684
2021-04-27 20:39:01+00:00,230.5247,4.6,13.84,47.84626,-54.09684
2021-04-27 20:49:01+00:00,238.2697,4.58,13.84,47.84626,-54.09684
2021-04-27 20:59:01+00:00,245.7714,4.54,13.84,47.84626,-54.09684
2021-04-27 21:09:01+00:00,253.5648,4.5,13.84,47.84626,-54.09684
2021-04-27 21:19:01+00:00,262.3531,4.5,13.6,47.84626,-54.09684
2021-04-27 21:29:01+00:00,272.7548,4.5,13.6,47.84626,-54.09684
2021-04-27 21:39:01+00:00,281.6031,4.5,13.6,47.84626,-54.09684
2021-04-27 21:49:01+00:00,290.3781,4.5,13.6,47.84626,-54.09684
2021-04-27 21:59:01+00:00,301.968,4.5,13.6,47.84626,-54.09684
2021-04-27 22:09:01+00:00,314.5147,4.5,13.6,47.84626,-54.09684
2021-04-27 22:19:00+00:00,325.0747,4.5,13.29,47.84626,-54.09684
2021-04-27 22:29:00+00:00,333.4846,4.49,13.29,47.84626,-54.09684
2021-04-27 22:39:00+00:00,345.0529,4.49,13.29,47.84626,-54.09684
2021-04-27 22:49:00+00:00,354.2147,4.4,13.29,47.84626,-54.09684
2021-04-27 22:59:00+00:00,359.9729,4.4,13.29,47.84626,-54.09684
2021-04-27 23:09:00+00:00,366.5812,4.4,13.29,47.84626,-54.09684
2021-04-27 23:19:01+00:00,372.543,4.4,12.89,47.84626,-54.09684
2021-04-27 23:29:01+00:00,375.8229,4.37,12.89,47.84626,-54.09684
2021-04-27 23:39:01+00:00,378.3779,4.3,12.89,47.84626,-54.09684
2021-04-27 23:49:01+00:00,380.8346,4.2,12.89,47.84626,-54.09684
2021-04-27 23:59:01+00:00,380.3762,4.2,12.89,47.84626,-54.09684
